User: anonymous   Login
Location: Unspecified
(0.0000°N, 0.0000°E)
Time: 14:36:19
(UTC+00:00)
Language:

COSMOS 2416 - Orbit

View from above orbital plane
View from above orbital plane
View from above satellite
View from above satellite

Ground track
Ground track

The orbit data is extracted from the following two-line orbital elements,

1 28909U 05048B   18267.73090271 -.00000004 +00000-0 -87499-4 0  9995
2 28909 082.4689 313.9619 0006576 350.5443 009.5517 12.55174143584576
Epoch (UTC): 24 September 2018 17:32:29
Eccentricity: 0.0006576
inclination: 82.4689°
perigee height: 1438 km
apogee height: 1448 km
right ascension of ascending node: 313.9619°
argument of perigee: 350.5443°
revolutions per day: 12.55174143
mean anomaly at epoch: 9.5517°
orbit number at epoch: 58457

The dashed part of the orbit path shows where the satellite is in the earth's shadow,  

DLR